SINOD-D 1

Last updated on Mon Sep 21 2026 00:03:44 GMT+0000 (Coordinated Universal Time)

1 40968U 15058E 26263.38978864 .00001768 00000+0 14569-3 0 9997 2 40968 64.7744 320.6097 0127595 17.1921 343.3454 14.96520874130903
UTC large
Height (km)
Speed (km/s)
/
Latitude / Longitude
Inclination (degrees)
Orbital Period (minutes)
Azimuth
Elevation
Range (km)
Doppler Factor

Next 0 passes for location: London (51.5072 / 0.1276)

No passes found over London.
SINOD-D 1